カタログに戻る

STARLINK-5897

運用中通信VLEO
NORAD 55931·PAYLOAD·🇺🇸 United States

打ち上げ Mar 17, 2023 から Vandenberg Space Force Base

Loading…

次のパス (今後24時間)

TLE

最新Source: CelesTrak SupGP

元期: Sep 15, 2026, 02:31 UTC

1 55931C 23037T   26258.10534722 -.00006344  00000+0 -53165-3 0  2584
2 55931  70.0024 186.6941 0002942 271.3968 108.5307 14.98332361    11

AllMySatでSTARLINK-5897をリアルタイム追跡

Download on the App Store